AZU2091 SBKP-SAEZ

Flight info

Callsign AZU2091
Flight time 2h 40m
Altitude 34000
Route ASETA UZ152 UKLEN UN741 PAPIX PAPIX7A
Aircraft A321/M-SDE3FGHIRWY/LB1

Departure

Time 2026-05-05 22:33
Airport Viracopos International Airport (SBKP)

Arrival

Time 2026-05-06 01:13
Airport Ezeiza International Airport - Ministro Pistarini (SAEZ)
Time Latitude Longitude Altitude Speed Heading
2026-05-05 21:57 -23.00556 -47.14364 2179 ft 0 kts 218°
2026-05-05 22:22 -23.00556 -47.14363 2179 ft 1 kts 218°
2026-05-05 22:22 -23.00545 -47.14354 2179 ft 2 kts 217°
2026-05-05 22:23 -23.00533 -47.14344 2179 ft 2 kts 218°
2026-05-05 22:23 -23.00521 -47.14334 2179 ft 2 kts 218°
2026-05-05 22:23 -23.00509 -47.14324 2179 ft 2 kts 219°
2026-05-05 22:23 -23.00500 -47.14312 2179 ft 2 kts 244°
2026-05-05 22:24 -23.00495 -47.14296 2179 ft 2 kts 262°
2026-05-05 22:24 -23.00495 -47.14280 2179 ft 2 kts 281°
2026-05-05 22:24 -23.00500 -47.14264 2179 ft 2 kts 300°
2026-05-05 22:24 -23.00503 -47.14257 2179 ft 1 kts 311°
2026-05-05 22:25 -23.00506 -47.14254 2179 ft 0 kts 308°
2026-05-05 22:29 -23.00501 -47.14262 2179 ft 5 kts 308°
2026-05-05 22:29 -23.00455 -47.14324 2179 ft 15 kts 308°
2026-05-05 22:30 -23.00370 -47.14443 2179 ft 24 kts 307°
2026-05-05 22:30 -23.00269 -47.14585 2179 ft 22 kts 308°
2026-05-05 22:30 -23.00176 -47.14715 2179 ft 20 kts 307°
2026-05-05 22:30 -23.00076 -47.14804 2178 ft 18 kts 351°
2026-05-05 22:31 -22.99959 -47.14791 2178 ft 16 kts 30°
2026-05-05 22:31 -22.99936 -47.14771 2178 ft 0 kts 46°
2026-05-05 22:31 -22.99933 -47.14767 2178 ft 4 kts 47°
2026-05-05 22:31 -22.99886 -47.14711 2178 ft 14 kts 49°
2026-05-05 22:32 -22.99916 -47.14603 2178 ft 12 kts 127°
2026-05-05 22:32 -22.99921 -47.14597 2178 ft 0 kts 127°
2026-05-05 22:32 -23.00031 -47.14442 2179 ft 62 kts 128°
2026-05-05 22:32 -23.00447 -47.13871 2180 ft 129 kts 125°
2026-05-05 22:33 -23.01112 -47.12936 2263 ft 175 kts 129°
2026-05-05 22:33 -23.01858 -47.11940 3010 ft 167 kts 129°
2026-05-05 22:33 -23.02620 -47.11021 3733 ft 166 kts 143°
2026-05-05 22:33 -23.03739 -47.10747 4213 ft 175 kts 190°
2026-05-05 22:34 -23.04906 -47.11271 4474 ft 189 kts 204°
2026-05-05 22:34 -23.06155 -47.11917 4741 ft 202 kts 202°
2026-05-05 22:34 -23.07507 -47.12514 5015 ft 217 kts 198°
2026-05-05 22:34 -23.08980 -47.13103 5271 ft 234 kts 202°
2026-05-05 22:35 -23.10308 -47.14245 5494 ft 258 kts 233°
2026-05-05 22:35 -23.10997 -47.16104 5818 ft 278 kts 263°
2026-05-05 22:35 -23.11041 -47.18225 6381 ft 286 kts 270°
2026-05-05 22:35 -23.11057 -47.20402 7105 ft 289 kts 269°
2026-05-05 22:36 -23.11091 -47.22561 7848 ft 292 kts 269°
2026-05-05 22:36 -23.11136 -47.24786 8623 ft 295 kts 269°
2026-05-05 22:36 -23.11187 -47.27008 9412 ft 297 kts 269°
2026-05-05 22:36 -23.11240 -47.29251 10184 ft 301 kts 268°
2026-05-05 22:37 -23.11293 -47.31519 10747 ft 312 kts 268°
2026-05-05 22:37 -23.11387 -47.33930 11125 ft 328 kts 262°
2026-05-05 22:37 -23.12176 -47.36274 11618 ft 336 kts 233°
2026-05-05 22:37 -23.13876 -47.38014 12377 ft 334 kts 213°
2026-05-05 22:38 -23.15807 -47.39383 13077 ft 336 kts 210°
2026-05-05 22:38 -23.17796 -47.40752 13748 ft 339 kts 211°
2026-05-05 22:38 -23.19773 -47.42168 14402 ft 342 kts 213°
2026-05-05 22:38 -23.21752 -47.43640 14958 ft 348 kts 213°
2026-05-05 22:39 -23.23749 -47.45169 15466 ft 355 kts 214°
2026-05-05 22:39 -23.25746 -47.46727 16066 ft 358 kts 215°
2026-05-05 22:39 -23.27765 -47.48318 16666 ft 360 kts 215°
2026-05-05 22:39 -23.29803 -47.49934 17241 ft 363 kts 216°
2026-05-05 22:40 -23.31866 -47.51578 17814 ft 366 kts 216°
2026-05-05 22:40 -23.33898 -47.53203 18405 ft 368 kts 216°
2026-05-05 22:40 -23.35971 -47.54860 19021 ft 369 kts 216°
2026-05-05 22:40 -23.38060 -47.56533 19617 ft 371 kts 216°
2026-05-05 22:41 -23.40132 -47.58194 20175 ft 373 kts 216°
2026-05-05 22:41 -23.42235 -47.59880 20757 ft 375 kts 216°
2026-05-05 22:41 -23.44342 -47.61571 21317 ft 377 kts 216°
2026-05-05 22:41 -23.46454 -47.63268 21882 ft 379 kts 217°
2026-05-05 22:42 -23.49289 -47.65546 22631 ft 381 kts 217°
2026-05-05 22:42 -23.50731 -47.66706 22967 ft 383 kts 217°
2026-05-05 22:42 -23.52957 -47.68497 23207 ft 384 kts 217°
2026-05-05 22:42 -23.55120 -47.70240 23209 ft 382 kts 217°
2026-05-05 22:43 -23.57296 -47.71991 23217 ft 382 kts 217°
2026-05-05 22:43 -23.59418 -47.73700 23220 ft 381 kts 217°
2026-05-05 22:43 -23.61555 -47.75421 23220 ft 382 kts 217°
2026-05-05 22:43 -23.63692 -47.77143 23222 ft 381 kts 217°
2026-05-05 22:44 -23.65829 -47.78865 23227 ft 382 kts 217°
2026-05-05 22:44 -23.67952 -47.80577 23232 ft 381 kts 217°
2026-05-05 22:44 -23.70090 -47.82301 23234 ft 381 kts 217°
2026-05-05 22:44 -23.72219 -47.84020 23239 ft 380 kts 217°
2026-05-05 22:45 -23.74348 -47.85739 23239 ft 380 kts 217°
2026-05-05 22:45 -23.76473 -47.87456 23241 ft 379 kts 217°
2026-05-05 22:45 -23.78595 -47.89172 23242 ft 380 kts 217°
2026-05-05 22:45 -23.80717 -47.90889 23244 ft 379 kts 217°
2026-05-05 22:46 -23.82849 -47.92614 23246 ft 379 kts 217°
2026-05-05 22:46 -23.84986 -47.94342 23244 ft 379 kts 217°
2026-05-05 22:46 -23.87097 -47.96052 23243 ft 379 kts 217°
2026-05-05 22:46 -23.89218 -47.97769 23242 ft 379 kts 217°
2026-05-05 22:47 -23.91335 -47.99485 23241 ft 378 kts 217°
2026-05-05 22:47 -23.93453 -48.01202 23241 ft 378 kts 217°
2026-05-05 22:47 -23.95574 -48.02921 23241 ft 380 kts 217°
2026-05-05 22:47 -23.97680 -48.04630 23243 ft 379 kts 217°
2026-05-05 22:48 -23.99802 -48.06350 23242 ft 380 kts 217°
2026-05-05 22:48 -24.01939 -48.08085 23240 ft 380 kts 217°
2026-05-05 22:48 -24.04072 -48.09817 23239 ft 380 kts 217°
2026-05-05 22:48 -24.06198 -48.11546 23232 ft 379 kts 217°
2026-05-05 22:49 -24.08307 -48.13261 23228 ft 380 kts 217°
2026-05-05 22:49 -24.10422 -48.14981 23224 ft 379 kts 217°
2026-05-05 22:49 -24.12599 -48.16753 23220 ft 378 kts 217°
2026-05-05 22:49 -24.14713 -48.18475 23221 ft 378 kts 217°
2026-05-05 22:50 -24.16840 -48.20208 23218 ft 378 kts 217°
2026-05-05 22:50 -24.18961 -48.21936 23218 ft 378 kts 217°
2026-05-05 22:50 -24.21072 -48.23655 23226 ft 378 kts 217°
2026-05-05 22:50 -24.23246 -48.25428 23229 ft 378 kts 217°
2026-05-05 22:51 -24.25370 -48.27159 23228 ft 378 kts 217°
2026-05-05 22:51 -24.27463 -48.28868 23229 ft 377 kts 217°
2026-05-05 22:51 -24.29580 -48.30595 23229 ft 377 kts 217°
2026-05-05 22:51 -24.31695 -48.32325 23225 ft 378 kts 217°
2026-05-05 22:52 -24.33795 -48.34041 23220 ft 379 kts 217°
2026-05-05 22:52 -24.35912 -48.35771 23217 ft 379 kts 217°
2026-05-05 22:52 -24.38038 -48.37508 23209 ft 379 kts 217°
2026-05-05 22:52 -24.40132 -48.39223 23209 ft 378 kts 217°
2026-05-05 22:53 -24.42267 -48.40968 23202 ft 378 kts 217°
2026-05-05 22:53 -24.44368 -48.42690 23193 ft 378 kts 217°
2026-05-05 22:53 -24.46479 -48.44421 23189 ft 378 kts 217°
2026-05-05 22:53 -24.48571 -48.46135 23186 ft 378 kts 217°
2026-05-05 22:54 -24.50693 -48.47876 23181 ft 378 kts 217°
2026-05-05 22:54 -24.52795 -48.49600 23180 ft 379 kts 217°
2026-05-05 22:54 -24.54896 -48.51323 23180 ft 377 kts 217°
2026-05-05 22:54 -24.57015 -48.53064 23180 ft 378 kts 217°
2026-05-05 22:55 -24.59114 -48.54787 23186 ft 377 kts 217°
2026-05-05 22:55 -24.61236 -48.56531 23190 ft 377 kts 217°
2026-05-05 22:55 -24.63347 -48.58267 23192 ft 378 kts 217°
2026-05-05 22:55 -24.65438 -48.59987 23196 ft 378 kts 217°
2026-05-05 22:56 -24.67557 -48.61728 23200 ft 378 kts 217°
2026-05-05 22:56 -24.69642 -48.63444 23202 ft 377 kts 217°
2026-05-05 22:56 -24.71752 -48.65184 23205 ft 377 kts 218°
2026-05-05 22:56 -24.73902 -48.66956 23208 ft 377 kts 218°
2026-05-05 22:57 -24.76030 -48.68707 23211 ft 376 kts 218°
2026-05-05 22:57 -24.78166 -48.70468 23212 ft 377 kts 218°
2026-05-05 22:57 -24.80281 -48.72214 23217 ft 377 kts 218°
2026-05-05 22:57 -24.82387 -48.73953 23226 ft 378 kts 218°
2026-05-05 22:58 -24.84467 -48.75670 23230 ft 377 kts 218°
2026-05-05 22:58 -24.86575 -48.77412 23233 ft 377 kts 218°
2026-05-05 22:58 -24.88665 -48.79138 23236 ft 377 kts 218°
2026-05-05 22:58 -24.90782 -48.80888 23241 ft 377 kts 218°
2026-05-05 22:59 -24.92865 -48.82610 23244 ft 377 kts 218°
2026-05-05 22:59 -24.94964 -48.84348 23246 ft 376 kts 218°
2026-05-05 22:59 -24.97059 -48.86081 23248 ft 376 kts 218°
2026-05-05 22:59 -24.99171 -48.87831 23254 ft 375 kts 218°
2026-05-05 23:00 -25.03340 -48.91288 23259 ft 375 kts 218°
2026-05-05 23:00 -25.05414 -48.93006 23265 ft 375 kts 218°
2026-05-05 23:00 -25.07508 -48.94742 23265 ft 375 kts 218°
2026-05-05 23:01 -25.09609 -48.96486 23265 ft 375 kts 218°
2026-05-05 23:01 -25.11699 -48.98221 23264 ft 374 kts 218°
2026-05-05 23:01 -25.13861 -49.00018 23267 ft 374 kts 218°
2026-05-05 23:01 -25.15948 -49.01752 23269 ft 374 kts 218°
2026-05-05 23:02 -25.18068 -49.03514 23270 ft 375 kts 218°
2026-05-05 23:02 -25.20200 -49.05288 23270 ft 376 kts 218°
2026-05-05 23:02 -25.22316 -49.07049 23268 ft 376 kts 218°
2026-05-05 23:02 -25.24399 -49.08784 23270 ft 376 kts 218°
2026-05-05 23:03 -25.26485 -49.10521 23270 ft 376 kts 218°
2026-05-05 23:03 -25.28579 -49.12267 23265 ft 377 kts 218°
2026-05-05 23:03 -25.30674 -49.14012 23267 ft 376 kts 218°
2026-05-05 23:03 -25.32744 -49.15740 23267 ft 376 kts 218°
2026-05-05 23:04 -25.34852 -49.17500 23265 ft 376 kts 218°
2026-05-05 23:04 -25.36934 -49.19236 23265 ft 374 kts 218°
2026-05-05 23:04 -25.38999 -49.20959 23266 ft 374 kts 218°
2026-05-05 23:04 -25.41092 -49.22709 23268 ft 374 kts 218°
2026-05-05 23:05 -25.43172 -49.24450 23265 ft 375 kts 218°
2026-05-05 23:05 -25.45239 -49.26178 23266 ft 374 kts 218°
2026-05-05 23:05 -25.47328 -49.27925 23265 ft 374 kts 218°
2026-05-05 23:05 -25.49407 -49.29664 23264 ft 374 kts 218°
2026-05-05 23:06 -25.51465 -49.31387 23267 ft 376 kts 218°
2026-05-05 23:06 -25.53548 -49.33133 23264 ft 375 kts 218°
2026-05-05 23:06 -25.55642 -49.34888 23263 ft 376 kts 218°
2026-05-05 23:06 -25.57740 -49.36646 23265 ft 377 kts 218°
2026-05-05 23:07 -25.59805 -49.38379 23265 ft 375 kts 218°
2026-05-05 23:07 -25.61893 -49.40132 23265 ft 375 kts 218°
2026-05-05 23:07 -25.63975 -49.41880 23263 ft 375 kts 218°
2026-05-05 23:07 -25.66074 -49.43643 23266 ft 375 kts 218°
2026-05-05 23:08 -25.68156 -49.45393 23265 ft 374 kts 218°
2026-05-05 23:08 -25.70209 -49.47118 23269 ft 375 kts 218°
2026-05-05 23:08 -25.72297 -49.48875 23273 ft 374 kts 218°
2026-05-05 23:08 -25.74363 -49.50613 23277 ft 374 kts 218°
2026-05-05 23:09 -25.76450 -49.52370 23279 ft 375 kts 218°
2026-05-05 23:09 -25.78512 -49.54108 23281 ft 375 kts 218°
2026-05-05 23:09 -25.80600 -49.55868 23282 ft 375 kts 218°
2026-05-05 23:09 -25.82694 -49.57632 23281 ft 376 kts 218°
2026-05-05 23:10 -25.84759 -49.59374 23280 ft 377 kts 218°
2026-05-05 23:10 -25.86858 -49.61144 23279 ft 376 kts 218°
2026-05-05 23:10 -25.88953 -49.62913 23276 ft 376 kts 218°
2026-05-05 23:10 -25.91011 -49.64650 23277 ft 376 kts 218°
2026-05-05 23:11 -25.93139 -49.66449 23276 ft 375 kts 218°
2026-05-05 23:11 -25.95262 -49.68245 23274 ft 376 kts 218°
2026-05-05 23:11 -25.97378 -49.70034 23268 ft 375 kts 218°
2026-05-05 23:11 -25.99429 -49.71769 23270 ft 374 kts 218°
2026-05-05 23:12 -26.01528 -49.73545 23269 ft 374 kts 219°
2026-05-05 23:12 -26.03606 -49.75304 23268 ft 374 kts 218°
2026-05-05 23:12 -26.05669 -49.77054 23264 ft 374 kts 218°
2026-05-05 23:12 -26.07730 -49.78801 23262 ft 373 kts 218°
2026-05-05 23:13 -26.09810 -49.80564 23261 ft 374 kts 219°
2026-05-05 23:13 -26.11909 -49.82347 23260 ft 374 kts 218°
2026-05-05 23:13 -26.14060 -49.84171 23260 ft 376 kts 218°
2026-05-05 23:13 -26.16216 -49.86002 23261 ft 376 kts 218°
2026-05-05 23:14 -26.18352 -49.87816 23261 ft 375 kts 218°
2026-05-05 23:14 -26.20467 -49.89615 23262 ft 375 kts 219°
2026-05-05 23:14 -26.22525 -49.91365 23262 ft 375 kts 219°
2026-05-05 23:14 -26.24625 -49.93151 23263 ft 375 kts 219°
2026-05-05 23:15 -26.26687 -49.94908 23267 ft 374 kts 219°
2026-05-05 23:15 -26.28759 -49.96671 23268 ft 374 kts 219°
2026-05-05 23:15 -26.30831 -49.98436 23267 ft 374 kts 219°
2026-05-05 23:15 -26.32909 -50.00207 23265 ft 374 kts 219°
2026-05-05 23:16 -26.34985 -50.01977 23262 ft 373 kts 219°
2026-05-05 23:16 -26.37027 -50.03721 23257 ft 374 kts 219°
2026-05-05 23:16 -26.39099 -50.05489 23251 ft 373 kts 219°
2026-05-05 23:16 -26.41176 -50.07263 23247 ft 373 kts 219°
2026-05-05 23:17 -26.43219 -50.09008 23244 ft 374 kts 219°
2026-05-05 23:17 -26.45291 -50.10779 23241 ft 373 kts 219°
2026-05-05 23:17 -26.47366 -50.12554 23237 ft 374 kts 219°
2026-05-05 23:17 -26.49413 -50.14307 23238 ft 374 kts 219°
2026-05-05 23:18 -26.51499 -50.16091 23236 ft 374 kts 219°
2026-05-05 23:18 -26.53554 -50.17851 23234 ft 373 kts 219°
2026-05-05 23:18 -26.55620 -50.19621 23237 ft 373 kts 219°
2026-05-05 23:18 -26.57671 -50.21378 23241 ft 372 kts 219°
2026-05-05 23:19 -26.59735 -50.23148 23245 ft 372 kts 219°
2026-05-05 23:19 -26.61794 -50.24915 23250 ft 372 kts 219°
2026-05-05 23:19 -26.63855 -50.26685 23254 ft 373 kts 219°
2026-05-05 23:19 -26.65929 -50.28466 23259 ft 373 kts 219°
2026-05-05 23:20 -26.67986 -50.30233 23263 ft 372 kts 219°
2026-05-05 23:20 -26.70042 -50.32000 23343 ft 377 kts 219°
2026-05-05 23:20 -26.72118 -50.33786 23861 ft 379 kts 219°
2026-05-05 23:20 -26.74202 -50.35578 24477 ft 378 kts 219°
2026-05-05 23:21 -26.76287 -50.37372 25004 ft 380 kts 219°
2026-05-05 23:21 -26.78380 -50.39173 25506 ft 381 kts 219°
2026-05-05 23:21 -26.80506 -50.41006 25999 ft 383 kts 220°
2026-05-05 23:21 -26.82629 -50.42834 26444 ft 385 kts 220°
2026-05-05 23:22 -26.84735 -50.44652 26880 ft 387 kts 220°
2026-05-05 23:22 -26.86878 -50.46501 27341 ft 388 kts 220°
2026-05-05 23:22 -26.89035 -50.48363 27767 ft 390 kts 220°
2026-05-05 23:22 -26.91180 -50.50216 28172 ft 392 kts 220°
2026-05-05 23:23 -26.93345 -50.52087 28621 ft 393 kts 220°
2026-05-05 23:23 -26.95500 -50.53951 29011 ft 395 kts 220°
2026-05-05 23:23 -26.97704 -50.55856 29387 ft 397 kts 220°
2026-05-05 23:23 -26.99877 -50.57736 29785 ft 397 kts 220°
2026-05-05 23:24 -27.02060 -50.59629 30207 ft 398 kts 220°
2026-05-05 23:24 -27.04265 -50.61537 30579 ft 399 kts 220°
2026-05-05 23:24 -27.06462 -50.63444 30897 ft 401 kts 220°
2026-05-05 23:24 -27.08677 -50.65364 31212 ft 402 kts 221°
2026-05-05 23:25 -27.11763 -50.68045 31669 ft 405 kts 221°
2026-05-05 23:25 -27.13297 -50.69375 31961 ft 404 kts 221°
2026-05-05 23:25 -27.15549 -50.71331 32474 ft 402 kts 221°
2026-05-05 23:25 -27.17798 -50.73282 32955 ft 399 kts 221°
2026-05-05 23:26 -27.20059 -50.75248 33386 ft 398 kts 221°
2026-05-05 23:26 -27.22283 -50.77183 33807 ft 397 kts 221°
2026-05-05 23:26 -27.24542 -50.79150 34328 ft 393 kts 221°
2026-05-05 23:26 -27.26692 -50.81025 34874 ft 389 kts 221°
2026-05-05 23:27 -27.28859 -50.82910 35424 ft 384 kts 221°
2026-05-05 23:27 -27.30939 -50.84722 35965 ft 379 kts 221°
2026-05-05 23:27 -27.33028 -50.86545 36456 ft 375 kts 221°
2026-05-05 23:27 -27.35075 -50.88330 36852 ft 372 kts 221°
2026-05-05 23:28 -27.37102 -50.90102 37122 ft 372 kts 220°
2026-05-05 23:28 -27.39156 -50.91897 37395 ft 372 kts 220°
2026-05-05 23:28 -27.41200 -50.93680 37677 ft 371 kts 221°
2026-05-05 23:28 -27.43244 -50.95468 37902 ft 372 kts 220°
2026-05-05 23:29 -27.45281 -50.97252 38095 ft 372 kts 220°
2026-05-05 23:29 -27.47316 -50.99035 38260 ft 373 kts 221°
2026-05-05 23:29 -27.51424 -51.02631 38264 ft 373 kts 220°
2026-05-05 23:30 -27.55508 -51.06207 38261 ft 372 kts 220°
2026-05-05 23:30 -27.59608 -51.09805 38261 ft 372 kts 221°
2026-05-05 23:31 -27.63693 -51.13392 38248 ft 373 kts 221°
2026-05-05 23:31 -27.67776 -51.16982 38248 ft 373 kts 221°
2026-05-05 23:32 -27.71878 -51.20595 38234 ft 373 kts 221°
2026-05-05 23:32 -27.75946 -51.24174 38228 ft 373 kts 221°
2026-05-05 23:33 -27.80037 -51.27782 38217 ft 374 kts 221°
2026-05-05 23:33 -27.84155 -51.31418 38227 ft 375 kts 221°
2026-05-05 23:34 -27.88249 -51.35035 38229 ft 374 kts 221°
2026-05-05 23:34 -27.92331 -51.38646 38221 ft 373 kts 221°
2026-05-05 23:35 -27.96420 -51.42265 38225 ft 373 kts 221°
2026-05-05 23:35 -28.00517 -51.45894 38223 ft 373 kts 221°
2026-05-05 23:36 -28.04604 -51.49521 38221 ft 373 kts 221°
2026-05-05 23:36 -28.08691 -51.53148 38220 ft 373 kts 221°
2026-05-05 23:37 -28.12796 -51.56799 38214 ft 374 kts 221°
2026-05-05 23:37 -28.17048 -51.60578 38203 ft 373 kts 221°
2026-05-05 23:38 -28.21219 -51.64295 38212 ft 373 kts 221°
2026-05-05 23:38 -28.25294 -51.67926 38214 ft 373 kts 221°
2026-05-05 23:39 -28.29312 -51.71511 38202 ft 373 kts 222°
2026-05-05 23:39 -28.33530 -51.75279 38200 ft 373 kts 222°
2026-05-05 23:40 -28.37413 -51.78752 38197 ft 373 kts 222°
2026-05-05 23:40 -28.41514 -51.82423 38199 ft 374 kts 222°
2026-05-05 23:41 -28.45589 -51.86074 38195 ft 374 kts 222°
2026-05-05 23:41 -28.49676 -51.89738 38188 ft 374 kts 221°
2026-05-05 23:42 -28.53784 -51.93423 38187 ft 374 kts 222°
2026-05-05 23:42 -28.57860 -51.97092 38183 ft 375 kts 222°
2026-05-05 23:43 -28.61959 -52.00779 38194 ft 376 kts 222°
2026-05-05 23:43 -28.66091 -52.04498 38180 ft 376 kts 222°
2026-05-05 23:44 -28.70169 -52.08172 38179 ft 376 kts 222°
2026-05-05 23:44 -28.74299 -52.11904 38178 ft 377 kts 222°
2026-05-05 23:45 -28.78424 -52.15627 38179 ft 376 kts 222°
2026-05-05 23:45 -28.82551 -52.19359 38176 ft 377 kts 222°
2026-05-05 23:46 -28.86680 -52.23095 38173 ft 377 kts 222°
2026-05-05 23:46 -28.90795 -52.26826 38175 ft 378 kts 222°
2026-05-05 23:47 -28.94909 -52.30557 38168 ft 378 kts 222°
2026-05-05 23:47 -28.99065 -52.34331 38158 ft 378 kts 222°
2026-05-05 23:48 -29.03203 -52.38092 38146 ft 379 kts 222°
2026-05-05 23:48 -29.07356 -52.41870 38146 ft 378 kts 222°
2026-05-05 23:49 -29.11505 -52.45648 38143 ft 378 kts 222°
2026-05-05 23:49 -29.15697 -52.49473 38160 ft 379 kts 222°
2026-05-05 23:50 -29.19824 -52.53239 38147 ft 379 kts 222°
2026-05-05 23:50 -29.23964 -52.57025 38154 ft 379 kts 222°
2026-05-05 23:51 -29.28104 -52.60809 38143 ft 379 kts 222°
2026-05-05 23:51 -29.32257 -52.64612 38142 ft 380 kts 222°
2026-05-05 23:52 -29.36495 -52.68498 38121 ft 380 kts 223°
2026-05-05 23:52 -29.40630 -52.72292 38135 ft 379 kts 223°
2026-05-05 23:53 -29.44762 -52.76090 38114 ft 380 kts 223°
2026-05-05 23:53 -29.48913 -52.79906 38120 ft 380 kts 223°
2026-05-05 23:54 -29.53050 -52.83715 38109 ft 381 kts 223°
2026-05-05 23:54 -29.57174 -52.87514 38109 ft 380 kts 223°
2026-05-05 23:55 -29.61312 -52.91334 38109 ft 381 kts 223°
2026-05-05 23:55 -29.65449 -52.95157 38098 ft 382 kts 223°
2026-05-05 23:56 -29.69616 -52.99011 38085 ft 383 kts 223°
2026-05-05 23:56 -29.73766 -53.02853 38066 ft 382 kts 223°
2026-05-05 23:57 -29.77944 -53.06725 38055 ft 384 kts 223°
2026-05-05 23:57 -29.82091 -53.10574 38049 ft 383 kts 223°
2026-05-05 23:58 -29.86225 -53.14411 38055 ft 383 kts 223°
2026-05-05 23:58 -29.90407 -53.18299 38054 ft 383 kts 223°
2026-05-05 23:59 -29.94572 -53.22177 38047 ft 385 kts 223°
2026-05-05 23:59 -29.98746 -53.26065 38049 ft 385 kts 223°
2026-05-06 00:00 -30.02910 -53.29953 38039 ft 385 kts 223°
2026-05-06 00:00 -30.07102 -53.33866 38045 ft 385 kts 223°
2026-05-06 00:01 -30.11261 -53.37755 38043 ft 385 kts 223°
2026-05-06 00:01 -30.15524 -53.41744 38053 ft 384 kts 223°
2026-05-06 00:02 -30.19704 -53.45663 38050 ft 384 kts 223°
2026-05-06 00:02 -30.23847 -53.49551 38042 ft 383 kts 223°
2026-05-06 00:03 -30.27979 -53.53430 38051 ft 383 kts 223°
2026-05-06 00:03 -30.32118 -53.57325 38052 ft 382 kts 223°
2026-05-06 00:04 -30.36278 -53.61239 38062 ft 382 kts 223°
2026-05-06 00:04 -30.40392 -53.65117 38065 ft 383 kts 224°
2026-05-06 00:05 -30.46683 -53.71055 38077 ft 382 kts 224°
2026-05-06 00:06 -30.50816 -53.74960 38075 ft 382 kts 223°
2026-05-06 00:06 -30.54958 -53.78881 38079 ft 381 kts 223°
2026-05-06 00:07 -30.59090 -53.82794 38077 ft 382 kts 224°
2026-05-06 00:07 -30.63220 -53.86709 38073 ft 384 kts 224°
2026-05-06 00:08 -30.67350 -53.90631 38074 ft 384 kts 224°
2026-05-06 00:08 -30.71520 -53.94593 38074 ft 384 kts 224°
2026-05-06 00:09 -30.75640 -53.98516 38073 ft 384 kts 224°
2026-05-06 00:09 -30.79781 -54.02462 38074 ft 383 kts 224°
2026-05-06 00:10 -30.83933 -54.06420 38081 ft 384 kts 224°
2026-05-06 00:10 -30.88069 -54.10370 38078 ft 383 kts 224°
2026-05-06 00:11 -30.92179 -54.14298 38079 ft 384 kts 224°
2026-05-06 00:11 -30.96310 -54.18254 38077 ft 383 kts 224°
2026-05-06 00:12 -31.00457 -54.22228 38080 ft 384 kts 224°
2026-05-06 00:12 -31.04580 -54.26180 38067 ft 384 kts 224°
2026-05-06 00:13 -31.08706 -54.30145 38065 ft 384 kts 224°
2026-05-06 00:13 -31.12861 -54.34139 38061 ft 384 kts 224°
2026-05-06 00:14 -31.17033 -54.38155 38052 ft 385 kts 224°
2026-05-06 00:14 -31.21151 -54.42126 38050 ft 385 kts 224°
2026-05-06 00:15 -31.25287 -54.46117 38043 ft 384 kts 224°
2026-05-06 00:15 -31.29414 -54.50103 38039 ft 384 kts 224°
2026-05-06 00:16 -31.33531 -54.54084 38034 ft 385 kts 224°
2026-05-06 00:16 -31.37653 -54.58076 38030 ft 385 kts 224°
2026-05-06 00:17 -31.41789 -54.62087 38030 ft 385 kts 224°
2026-05-06 00:17 -31.45862 -54.66215 38030 ft 384 kts 227°
2026-05-06 00:18 -31.49818 -54.70463 38026 ft 383 kts 227°
2026-05-06 00:18 -31.53746 -54.74692 38022 ft 383 kts 227°
2026-05-06 00:19 -31.57669 -54.78919 38019 ft 382 kts 227°
2026-05-06 00:19 -31.61578 -54.83137 38020 ft 382 kts 227°
2026-05-06 00:20 -31.65502 -54.87378 38017 ft 382 kts 227°
2026-05-06 00:20 -31.69398 -54.91594 38016 ft 382 kts 227°
2026-05-06 00:21 -31.73296 -54.95810 38015 ft 382 kts 227°
2026-05-06 00:21 -31.77186 -55.00029 38017 ft 383 kts 227°
2026-05-06 00:22 -31.81099 -55.04278 38015 ft 383 kts 227°
2026-05-06 00:22 -31.85010 -55.08528 38011 ft 382 kts 227°
2026-05-06 00:23 -31.88906 -55.12766 38010 ft 383 kts 227°
2026-05-06 00:23 -31.92830 -55.17043 38010 ft 382 kts 227°
2026-05-06 00:24 -31.96730 -55.21296 38007 ft 382 kts 227°
2026-05-06 00:24 -32.00615 -55.25540 38007 ft 382 kts 227°
2026-05-06 00:25 -32.04537 -55.29828 38008 ft 382 kts 227°
2026-05-06 00:25 -32.08451 -55.34113 38006 ft 382 kts 227°
2026-05-06 00:26 -32.12373 -55.38412 38013 ft 382 kts 227°
2026-05-06 00:26 -32.16284 -55.42706 38016 ft 382 kts 227°
2026-05-06 00:27 -32.20194 -55.47002 38015 ft 382 kts 227°
2026-05-06 00:27 -32.24099 -55.51297 38015 ft 382 kts 227°
2026-05-06 00:28 -32.27992 -55.55586 38012 ft 381 kts 227°
2026-05-06 00:28 -32.31854 -55.59845 38006 ft 382 kts 227°
2026-05-06 00:29 -32.35735 -55.64131 38002 ft 381 kts 227°
2026-05-06 00:29 -32.39698 -55.68512 38004 ft 381 kts 228°
2026-05-06 00:30 -32.43539 -55.72763 38002 ft 380 kts 228°
2026-05-06 00:30 -32.47404 -55.77052 38000 ft 382 kts 227°
2026-05-06 00:31 -32.51292 -55.81363 37993 ft 382 kts 228°
2026-05-06 00:31 -32.55151 -55.85649 37993 ft 382 kts 228°
2026-05-06 00:32 -32.59029 -55.89964 37986 ft 383 kts 228°
2026-05-06 00:32 -32.62901 -55.94278 37990 ft 382 kts 228°
2026-05-06 00:33 -32.66765 -55.98589 37992 ft 382 kts 228°
2026-05-06 00:33 -32.70641 -56.02916 37985 ft 382 kts 228°
2026-05-06 00:34 -32.74501 -56.07228 37985 ft 382 kts 228°
2026-05-06 00:34 -32.78371 -56.11560 37989 ft 382 kts 228°
2026-05-06 00:35 -32.82214 -56.15869 37984 ft 381 kts 228°
2026-05-06 00:35 -32.86062 -56.20186 37990 ft 382 kts 228°
2026-05-06 00:36 -32.89922 -56.24526 37986 ft 382 kts 228°
2026-05-06 00:36 -32.93778 -56.28861 37992 ft 383 kts 228°
2026-05-06 00:37 -32.97638 -56.33213 37986 ft 383 kts 228°
2026-05-06 00:37 -33.01514 -56.37600 37987 ft 383 kts 228°
2026-05-06 00:38 -33.05358 -56.41958 37993 ft 382 kts 229°
2026-05-06 00:38 -33.09189 -56.46311 37990 ft 383 kts 228°
2026-05-06 00:39 -33.13153 -56.50820 37991 ft 384 kts 229°
2026-05-06 00:39 -33.17062 -56.55270 37992 ft 383 kts 229°
2026-05-06 00:40 -33.20974 -56.59729 37995 ft 382 kts 229°
2026-05-06 00:40 -33.24835 -56.64130 37991 ft 383 kts 229°
2026-05-06 00:41 -33.28704 -56.68547 37989 ft 381 kts 229°
2026-05-06 00:41 -33.32648 -56.73056 37992 ft 382 kts 229°
2026-05-06 00:42 -33.36494 -56.77457 37985 ft 381 kts 229°
2026-05-06 00:42 -33.40300 -56.81821 37994 ft 381 kts 229°
2026-05-06 00:43 -33.44170 -56.86259 37992 ft 383 kts 230°
2026-05-06 00:43 -33.48010 -56.90671 37984 ft 381 kts 230°
2026-05-06 00:44 -33.51833 -56.95070 37991 ft 380 kts 230°
2026-05-06 00:44 -33.55661 -56.99482 37988 ft 381 kts 230°
2026-05-06 00:45 -33.59452 -57.03856 37993 ft 380 kts 230°
2026-05-06 00:45 -33.63277 -57.08273 37981 ft 381 kts 230°
2026-05-06 00:46 -33.67084 -57.12674 37994 ft 381 kts 230°
2026-05-06 00:46 -33.70890 -57.17084 37988 ft 381 kts 230°
2026-05-06 00:47 -33.74707 -57.21506 37982 ft 380 kts 230°
2026-05-06 00:47 -33.78497 -57.25906 37960 ft 378 kts 230°
2026-05-06 00:47 -33.80395 -57.28111 37613 ft 374 kts 230°
2026-05-06 00:48 -33.82246 -57.30262 36913 ft 375 kts 230°
2026-05-06 00:48 -33.84112 -57.32435 36185 ft 375 kts 230°
2026-05-06 00:48 -33.86001 -57.34639 35383 ft 377 kts 230°
2026-05-06 00:48 -33.87884 -57.36834 34676 ft 379 kts 230°
2026-05-06 00:49 -33.89807 -57.39079 34394 ft 385 kts 230°
2026-05-06 00:49 -33.91735 -57.41330 34122 ft 389 kts 230°
2026-05-06 00:49 -33.93698 -57.43624 33845 ft 391 kts 229°
2026-05-06 00:49 -33.95643 -57.45893 33579 ft 392 kts 230°
2026-05-06 00:50 -33.97602 -57.48185 33328 ft 394 kts 229°
2026-05-06 00:50 -33.99586 -57.50503 33073 ft 395 kts 229°
2026-05-06 00:50 -34.01553 -57.52806 32699 ft 395 kts 229°
2026-05-06 00:50 -34.03515 -57.55104 32089 ft 398 kts 229°
2026-05-06 00:51 -34.05511 -57.57448 31287 ft 401 kts 229°
2026-05-06 00:51 -34.07521 -57.59806 30496 ft 402 kts 229°
2026-05-06 00:51 -34.09503 -57.62132 29907 ft 398 kts 228°
2026-05-06 00:51 -34.11515 -57.64491 29361 ft 394 kts 228°
2026-05-06 00:52 -34.13512 -57.66834 28807 ft 390 kts 229°
2026-05-06 00:52 -34.15493 -57.69163 28230 ft 388 kts 229°
2026-05-06 00:52 -34.17456 -57.71470 27607 ft 386 kts 229°
2026-05-06 00:52 -34.19367 -57.73721 27088 ft 382 kts 229°
2026-05-06 00:53 -34.21269 -57.75962 26541 ft 379 kts 229°
2026-05-06 00:53 -34.23135 -57.78163 25987 ft 377 kts 229°
2026-05-06 00:53 -34.25000 -57.80366 25418 ft 374 kts 229°
2026-05-06 00:53 -34.26844 -57.82542 24907 ft 370 kts 229°
2026-05-06 00:54 -34.28672 -57.84700 24408 ft 367 kts 229°
2026-05-06 00:54 -34.30475 -57.86832 23874 ft 365 kts 229°
2026-05-06 00:54 -34.32301 -57.88995 23336 ft 363 kts 228°
2026-05-06 00:54 -34.34083 -57.91106 22802 ft 361 kts 228°
2026-05-06 00:55 -34.35861 -57.93211 22261 ft 359 kts 228°
2026-05-06 00:55 -34.37635 -57.95315 21707 ft 358 kts 228°
2026-05-06 00:55 -34.39420 -57.97439 21178 ft 356 kts 229°
2026-05-06 00:55 -34.41015 -57.99681 20622 ft 353 kts 236°
2026-05-06 00:56 -34.42363 -58.02162 20096 ft 350 kts 242°
2026-05-06 00:56 -34.43466 -58.04780 19547 ft 349 kts 246°
2026-05-06 00:56 -34.44502 -58.07435 18981 ft 349 kts 247°
2026-05-06 00:56 -34.45522 -58.10080 18426 ft 349 kts 247°
2026-05-06 00:57 -34.46553 -58.12751 17840 ft 350 kts 247°
2026-05-06 00:57 -34.47572 -58.15393 17285 ft 349 kts 246°
2026-05-06 00:57 -34.48595 -58.18044 16747 ft 349 kts 246°
2026-05-06 00:57 -34.49623 -58.20707 16172 ft 349 kts 246°
2026-05-06 00:58 -34.50651 -58.23369 15592 ft 348 kts 246°
2026-05-06 00:58 -34.51670 -58.26010 15046 ft 348 kts 246°
2026-05-06 00:58 -34.52702 -58.28682 14480 ft 347 kts 246°
2026-05-06 00:58 -34.53711 -58.31303 13916 ft 347 kts 246°
2026-05-06 00:59 -34.54750 -58.33996 13351 ft 347 kts 246°
2026-05-06 00:59 -34.55744 -58.36580 12814 ft 347 kts 246°
2026-05-06 00:59 -34.56766 -58.39241 12253 ft 347 kts 246°
2026-05-06 00:59 -34.57793 -58.41912 11697 ft 346 kts 246°
2026-05-06 01:00 -34.58804 -58.44544 11138 ft 347 kts 246°
2026-05-06 01:00 -34.59826 -58.47207 10590 ft 342 kts 246°
2026-05-06 01:00 -34.60796 -58.49729 10336 ft 318 kts 246°
2026-05-06 01:00 -34.61705 -58.52092 10141 ft 295 kts 247°
2026-05-06 01:01 -34.62554 -58.54310 9909 ft 291 kts 247°
2026-05-06 01:01 -34.63405 -58.56555 9525 ft 292 kts 249°
2026-05-06 01:01 -34.63914 -58.58913 9120 ft 289 kts 265°
2026-05-06 01:01 -34.64044 -58.61321 8794 ft 285 kts 270°
2026-05-06 01:02 -34.64099 -58.63715 8470 ft 282 kts 271°
2026-05-06 01:02 -34.64083 -58.66066 8144 ft 279 kts 274°
2026-05-06 01:02 -34.64030 -58.68473 7817 ft 276 kts 274°
2026-05-06 01:02 -34.63976 -58.70795 7500 ft 274 kts 274°
2026-05-06 01:03 -34.63922 -58.73128 7169 ft 271 kts 274°
2026-05-06 01:03 -34.63870 -58.75397 6854 ft 269 kts 275°
2026-05-06 01:03 -34.63824 -58.77658 6551 ft 266 kts 275°
2026-05-06 01:03 -34.63785 -58.79884 6243 ft 263 kts 274°
2026-05-06 01:04 -34.63748 -58.82117 5909 ft 262 kts 274°
2026-05-06 01:04 -34.63710 -58.84316 5528 ft 263 kts 274°
2026-05-06 01:04 -34.63663 -58.86539 5147 ft 263 kts 274°
2026-05-06 01:04 -34.63717 -58.88755 4987 ft 266 kts 261°
2026-05-06 01:05 -34.64538 -58.90813 4984 ft 274 kts 232°
2026-05-06 01:05 -34.66085 -58.92200 4980 ft 277 kts 204°
2026-05-06 01:05 -34.67941 -58.92524 4977 ft 264 kts 174°
2026-05-06 01:05 -34.69675 -58.92028 4953 ft 253 kts 164°
2026-05-06 01:06 -34.71368 -58.91410 4715 ft 251 kts 162°
2026-05-06 01:06 -34.73041 -58.90796 4465 ft 248 kts 162°
2026-05-06 01:06 -34.74686 -58.90191 4207 ft 245 kts 159°
2026-05-06 01:06 -34.76065 -58.89027 3892 ft 239 kts 122°
2026-05-06 01:07 -34.76600 -58.87190 3653 ft 230 kts 97°
2026-05-06 01:07 -34.76841 -58.85270 3413 ft 228 kts 97°
2026-05-06 01:07 -34.77103 -58.83367 3162 ft 225 kts 98°
2026-05-06 01:07 -34.77380 -58.81512 2913 ft 224 kts 98°
2026-05-06 01:08 -34.77667 -58.79647 2649 ft 222 kts 98°
2026-05-06 01:08 -34.77947 -58.77821 2497 ft 217 kts 99°
2026-05-06 01:08 -34.78241 -58.76011 2374 ft 212 kts 99°
2026-05-06 01:08 -34.78536 -58.74290 2252 ft 206 kts 100°
2026-05-06 01:09 -34.78828 -58.72632 2232 ft 187 kts 100°
2026-05-06 01:09 -34.79084 -58.71201 2224 ft 161 kts 99°
2026-05-06 01:09 -34.79307 -58.69954 2190 ft 140 kts 99°
2026-05-06 01:09 -34.79508 -58.68820 2190 ft 135 kts 99°
2026-05-06 01:10 -34.79707 -58.67698 2050 ft 134 kts 98°
2026-05-06 01:10 -34.79902 -58.66593 1878 ft 133 kts 99°
2026-05-06 01:10 -34.80099 -58.65488 1705 ft 133 kts 98°
2026-05-06 01:10 -34.80296 -58.64381 1534 ft 133 kts 99°
2026-05-06 01:11 -34.80492 -58.63282 1361 ft 132 kts 99°
2026-05-06 01:11 -34.80687 -58.62189 1188 ft 132 kts 99°
2026-05-06 01:11 -34.80878 -58.61110 1017 ft 131 kts 99°
2026-05-06 01:11 -34.81074 -58.60014 847 ft 131 kts 100°
2026-05-06 01:12 -34.81265 -58.58940 675 ft 131 kts 100°
2026-05-06 01:12 -34.81458 -58.57859 507 ft 130 kts 100°
2026-05-06 01:12 -34.81651 -58.56775 334 ft 130 kts 101°
2026-05-06 01:12 -34.81844 -58.55708 162 ft 128 kts 101°
2026-05-06 01:13 -34.82037 -58.54665 72 ft 118 kts 102°
2026-05-06 01:13 -34.82145 -58.54052 71 ft 34 kts 104°
2026-05-06 01:13 -34.82104 -58.53859 71 ft 22 kts 47°
2026-05-06 01:13 -34.81995 -58.53729 71 ft 21 kts 46°
2026-05-06 01:14 -34.81832 -58.53524 71 ft 16 kts 45°
2026-05-06 01:14 -34.81751 -58.53425 71 ft 16 kts 45°
2026-05-06 01:14 -34.81668 -58.53322 71 ft 17 kts 45°
2026-05-06 01:15 -34.81579 -58.53226 71 ft 17 kts 25°
2026-05-06 01:15 -34.81495 -58.53295 71 ft 16 kts 301°
2026-05-06 01:15 -34.81436 -58.53422 71 ft 17 kts 298°
2026-05-06 01:15 -34.81377 -58.53552 71 ft 17 kts 306°
2026-05-06 01:16 -34.81275 -58.53578 71 ft 11 kts
2026-05-06 01:16 -34.81194 -58.53558 71 ft 12 kts 38°
2026-05-06 01:16 -34.81113 -58.53543 71 ft 13 kts 342°
2026-05-06 01:16 -34.81042 -58.53572 71 ft 9 kts 328°
2026-05-06 01:17 -34.81045 -58.53638 71 ft 7 kts 254°
2026-05-06 01:17 -34.81055 -58.53677 71 ft 4 kts 254°
2026-05-06 01:17 -34.81057 -58.53688 71 ft 0 kts 254°